Location: Losili
(4.4086°N, 32.7049°E)
Time: 13:51:50
(UTC+00:00)

Lacrosse 5 rocket - Pass Details

Date: 18 September 2019
Orbit: 459 x 639 km, 57.0° (Epoch: 21 October)

Event Time Altitude Azimuth Distance (km) Brightness Sun altitude
Rises 17:07:06 0° 248° (WSW) 2,476 5.8 -20.7°
Reaches altitude 10° 17:10:54 10° 290° (WNW) 1,590 4.7 -21.7°
Maximum altitude 17:11:39 11° 302° (WNW) 1,559 4.5 -21.8°
Drops below altitude 10° 17:12:23 10° 314° (NW) 1,589 4.3 -22.0°
Sets 17:16:12 0° 356° (N) 2,472 4.8 -23.0°
